Hourly Data Report for October 01, 2013

All times are specified in Local Standard Time (LST). Add 1 hour to adjust for Daylight Saving Time where and when it is observed.

POND INLET A
NUNAVUT

72°41'22.000" N
77°58'08.000" W
61.60 m
2403206
71095
YIO

Download Data

Hourly Data (October 2013)
Hourly Data Report for October 1, 2013
Temp Definition
°C
Dew Point Temp Definition
°C
Rel Hum Definition
%
Wind Dir Definition
10's deg

Wind Spd Definition
km/h
Visibility Definition
km
Stn Press Definition
kPa
Hmdx Definition


Wind Chill Definition


Weather Definition


TIME
00:00 Legend Double Dagger -7.2 -9.6 83 14 8 16.1 99.79   -11 LegendNANA
01:00 Legend Double Dagger -7.7 -9.9 84 16 9 16.1 99.81   -12 LegendNANA
02:00 Legend Double Dagger -7.1 -9.2 85 13 8 16.1 99.82   -11 LegendNANA
03:00 Legend Double Dagger -5.6 -9.0 77 14 17 16.1 99.84   -12 LegendNANA
04:00 Legend Double Dagger -5.5 -8.9 77 14 17 16.1 99.87   -12 LegendNANA
05:00 Legend Double Dagger -5.4 -9.0 76 13 15 16.1 99.91   -11 LegendNANA
06:00 Legend Double Dagger -5.3 -8.1 81 14 15 16.1 99.93   -11 LegendNANA
07:00 Legend Double Dagger -4.8 -7.6 81 14 15 16.1 99.94   -10 LegendNANA
08:00 Legend Double Dagger -4.4 -7.3 80 14 17 16.1 99.93   -10 LegendNANA
09:00 Legend Double Dagger -4.2 -7.7 77 15 18 16.1 99.94   -10 LegendNANA
10:00 Legend Double Dagger -4.0 -7.1 79 15 17 16.1 99.95   -10 LegendNANA
11:00 Legend Double Dagger -3.8 -7.1 78 15 17 16.1 99.93   -10 LegendNANA
12:00 Legend Double Dagger -3.6 -6.7 80 13 9 16.1 99.95   -7 LegendNANA
13:00 Legend Double Dagger -3.4 -6.6 79 23 5 16.1 99.97   -5 LegendNANA
14:00 Legend Double Dagger -3.4 -6.7 78 22 8 16.1 99.99   -7 LegendNANA
15:00 Legend Double Dagger -3.3 -6.1 81 21 5 16.1 100.02   -5 LegendNANA
16:00 Legend Double Dagger -3.3 -5.6 84 23 17 16.1 100.05   -9 LegendNANA
17:00 Legend Double Dagger -3.4 -5.9 83 23 11 16.1 100.08   -8 LegendNANA
18:00 Legend Double Dagger -3.8 -6.4 82 21 13 12.9 100.11   -9 LegendNANA
19:00 Legend Double Dagger -3.9 -6.4 83 17 13 16.1 100.14   -9 LegendNANA
20:00 Legend Double Dagger -4.1 -6.7 82 18 11 16.1 100.15   -9 LegendNANA
21:00 Legend Double Dagger -4.2 -7.0 81 14 13 16.1 100.15   -9 LegendNANA
22:00 Legend Double Dagger -4.4 -7.4 80 15 11 16.1 100.17   -9 LegendNANA
23:00 Legend Double Dagger -4.9 -7.5 82 17 13 16.1 100.17   -10 LegendNANA

Notes on Data Quality.

Legend

  • E = Estimated
  • M = Missing
  • NA = Not Available
  • ‡ = Partner data that is not subject to review by the National Climate Archives
Date modified: